Regional Weather Roundup
Issued by NWS Goodland, KS

Home | Current Version | Previous Version | Graphics & Text | Print | Product List | Glossary On
Versions: 1 2 3 4 5 6 7 8 9 10 11 12 13 14 15 16 17 18 19 20 21 22 23 24 25 26 27 28 29 30 31 32 33 34 35 36 37 38 39 40 41 42 43 44 45 46 47 48 49 50
000
ASUS43 KGLD 262308
RWRGLD

GOODLAND FORECAST AREA HOURLY WEATHER ROUNDUP
NATIONAL WEATHER SERVICE GOODLAND KS
500 PM MDT MON JUN 26 2017

...OFFICIAL OBSERVATIONS...

CITY           SKY/WX    TMP DP  RH WIND       PRES   REMARKS
GOODLAND KS    CLOUDY    83  55  38 CALM      30.08F
HILL CITY KS   CLOUDY    81  62  52 E9        30.07F
IMPERIAL NEB   PTSUNNY   80  54  40 E13G21    30.11S
MCCOOK NEB     MOSUNNY   80  60  50 E17       30.10F
AKRON CO       PTSUNNY   82  50  32 E10       30.13F
BURLINGTON CO  MOSUNNY   85  55  35 E14       30.11S
LIMON CO       SUNNY     84  46  26 SE17G23   30.14F
$$

...UNOFFICIAL OBSERVATIONS...

CITY           SKY/WX    TMP DP  RH WIND       PRES   REMARKS
LENORA KS        N/A     79  32  18 MISG        N/A
NORTON KS      CLOUDY    79  55  44 NE12      30.08S
SHARON SPRINGS   N/A     88  57  34 CALM        N/A
TRENTON NEB      N/A     80  32  17 E9          N/A
KIT CARSON CO    N/A     86  50  28 MISG        N/A
YUMA CO        PTSUNNY   77  55  47 E18G25    30.11F
$$




USA.gov is the U.S. government's official web portal to all federal, state and local government web resources and services.